[[{"header":{"parameterUnit":"m.s-1","parameterCategory":1,"la1":30.2991,"la2":30.254,"lo1":-89.0895,"lo2":-89.0444,"dy":0.0017,"dx":0.0017,"nx":28,"ny":28,"refTime":"2026-01-11T03:00:00:Z","depth":0,"parameterNumber":2,"parameterNumberName":"U-component_of_WINDS"},"data":[0,0,0,0,0,0,0,0,0,0,0,0,0,0,0,0,0,0,0,0,0,0,0,0,0,0,0,0,0,0,0,0,0,0,0,0,0,0,0,0,0,0,0,0,0,0,0,0,0,0,0,0,0,0,0,0,0,0,-0.329,-0.329,0,-0.328,-0.328,-0.328,-0.3266,-0.3266,-0.3265,-0.3265,-0.3256,-0.3256,-0.3256,0,0,0,0,0,0,0,0,0,0,0,0,0,-0.3296,-0.3296,-0.329,-0.329,-0.3289,-0.328,-0.328,-0.328,-0.3266,-0.3266,-0.3265,-0.3265,-0.3256,-0.3256,-0.3256,0,0,0,0,0,0,0,0,0,0,0,0,0,-0.3291,-0.3296,-0.329,-0.3281,-0.328,-0.328,-0.328,-0.328,-0.3266,-0.3266,-0.3265,-0.3265,-0.3256,-0.3256,-0.3256,-0.3264,0,0,-0.3256,-0.3256,0,0,0,0,0,0,0,0,-0.3291,-0.329,-0.3283,-0.3282,-0.3281,-0.3274,-0.3279,-0.3275,-0.3266,-0.3272,-0.3265,-0.3265,-0.3262,-0.3262,-0.3261,-0.3263,-0.3263,-0.3256,-0.3256,-0.3256,-0.3256,0,0,0,0,0,0,0,-0.3291,-0.3291,-0.3286,-0.3283,-0.3282,-0.3278,-0.3277,-0.3278,-0.3269,-0.3271,-0.327,-0.3269,-0.3262,-0.3261,-0.3261,-0.3263,-0.3256,-0.3256,-0.3256,-0.3256,-0.327,-0.3271,0,0,0,0,0,0,-0.3293,-0.3291,-0.3286,-0.3286,-0.3285,-0.3278,-0.3277,-0.3277,-0.3269,-0.3268,-0.3269,-0.3268,-0.3261,-0.3261,-0.326,-0.3269,-0.3256,-0.3256,-0.3256,-0.327,-0.3271,-0.3271,0,0,0,0,0,0,-0.3293,-0.3293,-0.3287,-0.3288,-0.3287,-0.3279,-0.3278,-0.3277,-0.3276,-0.3268,-0.3266,-0.327,-0.3261,-0.326,-0.3263,-0.3268,-0.3256,-0.3256,-0.327,-0.327,-0.3271,-0.3285,0,0,0,0,0,0,-0.3293,-0.3293,-0.3295,-0.3288,-0.3287,-0.3289,-0.3278,-0.3277,-0.3276,-0.3274,-0.3268,-0.3267,-0.326,-0.3263,-0.3263,-0.3268,-0.3256,-0.3269,-0.327,-0.3271,-0.3284,-0.3286,-0.3288,0,0,0,0,0,-0.3294,-0.33,-0.3296,-0.3295,-0.329,-0.329,-0.3289,-0.3282,-0.3276,-0.3279,-0.3274,-0.3267,-0.3267,-0.3263,-0.3263,-0.3268,-0.3269,-0.327,-0.3271,-0.3284,-0.3286,-0.3288,0,0,0,0,0,0,-0.3309,-0.3299,-0.3294,-0.3298,-0.3295,-0.3287,-0.3291,-0.3284,-0.3283,-0.3281,-0.3272,-0.3271,-0.3275,-0.3272,-0.3267,-0.3275,-0.3267,-0.3268,-0.3277,-0.3279,-0.3281,-0.3282,-0.3256,0,0,0,0,0,-0.3312,-0.3312,-0.3304,-0.3309,-0.3307,-0.3299,-0.3299,-0.3293,-0.3289,-0.3288,-0.3283,-0.328,-0.3279,-0.3279,-0.3278,-0.3284,-0.3282,-0.3287,-0.3289,-0.329,-0.3291,-0.3294,-0.3297,-0.3274,-0.3274,-0.3274,0,0,-0.332,-0.3315,-0.3316,-0.3312,-0.3308,-0.3309,-0.3298,-0.3299,-0.33,-0.3288,-0.329,-0.3286,-0.3282,-0.3286,-0.3288,-0.3284,-0.3297,-0.3292,-0.3293,-0.3293,-0.3296,-0.3298,-0.33,-0.3274,-0.3274,-0.3274,0,0,-0.3335,-0.3331,-0.3334,-0.3331,-0.3326,-0.332,-0.3321,-0.3314,-0.3311,-0.3313,-0.3305,-0.3305,-0.3304,-0.3301,-0.33,-0.3313,-0.3307,-0.3313,-0.3323,-0.3326,-0.3328,-0.3329,-0.3334,-0.3336,-0.3314,-0.3314,-0.3314,0,-0.3345,-0.3346,-0.3337,-0.3338,-0.3337,-0.3326,-0.333,-0.3327,-0.3322,-0.3321,-0.3316,-0.3315,-0.3311,-0.3315,-0.3318,-0.3317,-0.3318,-0.3314,-0.3328,-0.3329,-0.3331,-0.3335,-0.3337,-0.3315,-0.3315,-0.3314,-0.3314,0,-0.3359,-0.3359,-0.3363,-0.3358,-0.3357,-0.3359,-0.3351,-0.3351,-0.3345,-0.334,-0.3342,-0.3337,-0.3335,-0.3335,-0.333,-0.3338,-0.3336,-0.333,-0.3322,-0.3334,-0.3338,-0.334,-0.3316,-0.3315,-0.3315,-0.3315,0,0,-0.3384,-0.3373,-0.3375,-0.3373,-0.3366,-0.3366,-0.3368,-0.3365,-0.3366,-0.3362,-0.3364,-0.3363,-0.3357,-0.3356,-0.335,-0.3352,-0.3363,-0.3346,-0.3346,-0.335,-0.3372,-0.3377,-0.338,-0.3359,-0.3359,-0.3359,-0.3373,0,-0.3397,-0.34,-0.3392,-0.3397,-0.3397,-0.3387,-0.3388,-0.3384,-0.338,-0.3379,-0.3374,-0.3374,-0.3366,-0.3365,-0.3367,-0.3362,-0.3368,-0.336,-0.3361,-0.3361,-0.3363,-0.3382,-0.3387,-0.34,-0.3374,-0.3375,-0.3375,0,-0.3414,-0.3411,-0.3416,-0.3409,-0.3409,-0.3411,-0.3408,-0.3407,-0.3403,-0.3399,-0.3397,-0.339,-0.3391,-0.3383,-0.3385,-0.338,-0.338,-0.3377,-0.3378,-0.3378,-0.3369,-0.3383,-0.3404,-0.3406,-0.3377,-0.3377,-0.3377,0,-0.3432,-0.343,-0.3432,-0.343,-0.3422,-0.3424,-0.342,-0.3415,-0.3414,-0.3411,-0.3411,-0.3408,-0.3407,-0.3406,-0.3398,-0.3393,-0.3401,-0.3392,-0.3399,-0.3399,-0.3402,-0.3402,-0.3424,-0.34,-0.34,-0.34,-0.34,0,-0.3449,-0.3452,-0.344,-0.3442,-0.3445,-0.3436,-0.344,-0.3435,-0.3431,-0.3432,-0.3422,-0.3423,-0.3413,-0.3413,-0.3407,-0.341,-0.3409,-0.3406,-0.3405,-0.3408,-0.3408,-0.3408,-0.3407,-0.3401,-0.3401,-0.34,-0.34,0,-0.347,-0.3462,-0.3464,-0.3456,-0.3454,-0.3457,-0.345,-0.3451,-0.3445,-0.3446,-0.3446,-0.3437,-0.3437,-0.3429,-0.3426,-0.3422,-0.3428,-0.3424,-0.3429,-0.3429,-0.3436,-0.3435,-0.3458,-0.3461,-0.3436,-0.3436,-0.3436,0,-0.3482,-0.3484,-0.3476,-0.3475,-0.3472,-0.3472,-0.3471,-0.3461,-0.346,-0.3455,-0.3457,-0.3455,-0.3454,-0.3453,-0.3447,-0.3445,-0.3442,-0.345,-0.3441,-0.3444,-0.3442,-0.3443,-0.3443,-0.3452,-0.3452,-0.3452,-0.3453,0,-0.3503,-0.3499,-0.3497,-0.3494,-0.3493,-0.349,-0.3487,-0.3487,-0.3477,-0.3477,-0.3476,-0.3474,-0.3471,-0.347,-0.3467,-0.3464,-0.3457,-0.3455,-0.3457,-0.346,-0.3463,-0.3462,-0.3435,-0.3455,-0.3455,-0.3455,-0.3454,-0.3454,-0.352,-0.3522,-0.3516,-0.3515,-0.3511,-0.3508,-0.3509,-0.3503,-0.3502,-0.3499,-0.3494,-0.3493,-0.3488,-0.3483,-0.3481,-0.3481,-0.3476,-0.3478,-0.3479,-0.348,-0.3482,-0.3462,-0.348,-0.348,-0.348,-0.348,-0.348,0,-0.3542,-0.3537,-0.3536,-0.3532,-0.3531,-0.3523,-0.3519,-0.3519,-0.3519,-0.3515,-0.3513,-0.3512,-0.351,-0.3504,-0.3501,-0.3503,-0.3499,-0.3503,-0.3503,-0.3502,-0.3485,-0.3484,-0.3505,-0.3505,-0.3505,-0.3505,-0.3505,-0.3505,-0.3553,-0.3555,-0.355,-0.3551,-0.3547,-0.3546,-0.3545,-0.3542,-0.3538,-0.3537,-0.3536,-0.3531,-0.3526,-0.3524,-0.3522,-0.352,-0.352,-0.3524,-0.3521,-0.3506,-0.3503,-0.3501,-0.35,-0.3524,-0.3524,-0.3538,-0.3539,-0.3539]},{"header":{"parameterUnit":"m.s-1","parameterCategory":1,"la1":30.2991,"la2":30.254,"lo1":-89.0895,"lo2":-89.0444,"dy":0.0017,"dx":0.0017,"nx":28,"ny":28,"refTime":"2026-01-11T03:00:00:Z","depth":0,"parameterNumber":3,"parameterNumberName":"V-component_of_WINDS"},"data":[0,0,0,0,0,0,0,0,0,0,0,0,0,0,0,0,0,0,0,0,0,0,0,0,0,0,0,0,0,0,0,0,0,0,0,0,0,0,0,0,0,0,0,0,0,0,0,0,0,0,0,0,0,0,0,0,0,0,-2.4868,-2.4869,0,-2.4909,-2.4909,-2.491,-2.4918,-2.4917,-2.4917,-2.4917,-2.4956,-2.4957,-2.4958,0,0,0,0,0,0,0,0,0,0,0,0,0,-2.4795,-2.4796,-2.4868,-2.4869,-2.4869,-2.4909,-2.4909,-2.491,-2.4918,-2.4917,-2.4917,-2.4917,-2.4955,-2.4957,-2.4958,0,0,0,0,0,0,0,0,0,0,0,0,0,-2.483,-2.4797,-2.4868,-2.4878,-2.4879,-2.4909,-2.491,-2.491,-2.4918,-2.4917,-2.4917,-2.4916,-2.4955,-2.4957,-2.4959,-2.498,0,0,-2.4965,-2.4965,0,0,0,0,0,0,0,0,-2.4828,-2.4833,-2.4876,-2.4877,-2.4879,-2.4908,-2.4898,-2.4934,-2.4918,-2.4903,-2.4917,-2.4916,-2.494,-2.4943,-2.4952,-2.4982,-2.4984,-2.4965,-2.4966,-2.4967,-2.4967,0,0,0,0,0,0,0,-2.4826,-2.4831,-2.4884,-2.4877,-2.4878,-2.488,-2.4884,-2.4905,-2.4923,-2.4904,-2.4905,-2.491,-2.4941,-2.495,-2.4953,-2.4984,-2.4965,-2.4967,-2.4968,-2.4969,-2.5037,-2.5037,0,0,0,0,0,0,-2.4822,-2.4829,-2.4883,-2.4885,-2.4852,-2.4881,-2.4886,-2.4899,-2.4923,-2.4927,-2.491,-2.491,-2.4947,-2.495,-2.4954,-2.4983,-2.4967,-2.4969,-2.497,-2.5036,-2.5037,-2.5038,0,0,0,0,0,0,-2.482,-2.4827,-2.4881,-2.4858,-2.4865,-2.4883,-2.4897,-2.49,-2.4909,-2.4928,-2.4931,-2.4916,-2.4946,-2.4951,-2.4974,-2.4984,-2.497,-2.4971,-2.5035,-2.5036,-2.5037,-2.5039,0,0,0,0,0,0,-2.4818,-2.4826,-2.4835,-2.4858,-2.4866,-2.4901,-2.4898,-2.4901,-2.4913,-2.4913,-2.4934,-2.4937,-2.4946,-2.4971,-2.4976,-2.4987,-2.4973,-2.5035,-2.5036,-2.5037,-2.5038,-2.504,-2.5042,0,0,0,0,0,-2.4816,-2.4833,-2.4835,-2.4842,-2.4877,-2.4902,-2.4907,-2.4917,-2.4914,-2.4923,-2.4935,-2.4937,-2.4982,-2.4974,-2.4979,-2.499,-2.5034,-2.5036,-2.5037,-2.5038,-2.504,-2.5042,0,0,0,0,0,0,-2.4809,-2.4836,-2.4839,-2.4864,-2.4881,-2.4903,-2.4915,-2.4919,-2.4936,-2.4935,-2.4947,-2.4952,-2.4975,-2.4985,-2.4975,-2.5014,-2.5008,-2.501,-2.5007,-2.5009,-2.501,-2.5008,-2.4975,0,0,0,0,0,-2.481,-2.4829,-2.4851,-2.4871,-2.488,-2.4896,-2.4907,-2.4914,-2.4931,-2.4938,-2.4952,-2.4968,-2.4986,-2.4998,-2.5015,-2.504,-2.5045,-2.505,-2.5052,-2.5053,-2.5055,-2.5071,-2.5074,-2.5042,-2.5042,-2.5042,0,0,-2.4813,-2.483,-2.4841,-2.487,-2.4884,-2.4903,-2.4902,-2.4921,-2.4935,-2.4941,-2.4964,-2.4975,-2.4994,-2.5018,-2.503,-2.5027,-2.5065,-2.5055,-2.5056,-2.5057,-2.5072,-2.5075,-2.5078,-2.5043,-2.5043,-2.5043,0,0,-2.4829,-2.4843,-2.4862,-2.4877,-2.4899,-2.491,-2.4914,-2.4937,-2.4945,-2.4969,-2.4974,-2.4991,-2.5021,-2.5035,-2.5046,-2.5069,-2.5072,-2.5074,-2.5083,-2.5098,-2.51,-2.5103,-2.5112,-2.5115,-2.5076,-2.5076,-2.5076,0,-2.4829,-2.4859,-2.4871,-2.4892,-2.4905,-2.4912,-2.4932,-2.4945,-2.4971,-2.498,-2.4977,-2.5017,-2.503,-2.5059,-2.5065,-2.5073,-2.5079,-2.5072,-2.5099,-2.5102,-2.5104,-2.5113,-2.5117,-2.5077,-2.5077,-2.5077,-2.5077,0,-2.4859,-2.488,-2.4893,-2.492,-2.4934,-2.4953,-2.4969,-2.4982,-2.4988,-2.4999,-2.5025,-2.5041,-2.5063,-2.507,-2.5075,-2.51,-2.5098,-2.5097,-2.5091,-2.5107,-2.5116,-2.5119,-2.5077,-2.5077,-2.5077,-2.5077,0,0,-2.4871,-2.4906,-2.4911,-2.4924,-2.495,-2.4965,-2.4985,-2.5009,-2.502,-2.5038,-2.5056,-2.5082,-2.5082,-2.5095,-2.5102,-2.5115,-2.5134,-2.5112,-2.5113,-2.5117,-2.5164,-2.5165,-2.5169,-2.5136,-2.5137,-2.5137,-2.5163,0,-2.489,-2.4928,-2.4941,-2.4972,-2.4992,-2.5001,-2.5019,-2.5036,-2.5047,-2.5065,-2.5077,-2.5097,-2.5095,-2.5103,-2.5116,-2.5129,-2.5144,-2.5127,-2.5153,-2.5154,-2.5149,-2.5174,-2.5175,-2.5199,-2.5166,-2.5167,-2.5167,0,-2.4918,-2.4938,-2.4972,-2.4998,-2.5006,-2.5022,-2.5046,-2.5062,-2.5083,-2.509,-2.5105,-2.5112,-2.5134,-2.5127,-2.5157,-2.5146,-2.5157,-2.5165,-2.5166,-2.517,-2.5162,-2.5179,-2.5206,-2.521,-2.5173,-2.5172,-2.5172,0,-2.4924,-2.496,-2.4986,-2.4997,-2.5026,-2.5038,-2.505,-2.507,-2.5084,-2.5104,-2.5113,-2.5134,-2.5146,-2.5163,-2.5175,-2.5169,-2.5205,-2.5199,-2.5212,-2.5212,-2.522,-2.522,-2.5251,-2.5226,-2.5225,-2.5225,-2.5225,0,-2.4945,-2.4966,-2.499,-2.5005,-2.5029,-2.5044,-2.5067,-2.508,-2.5098,-2.5116,-2.5124,-2.5141,-2.5156,-2.5175,-2.5184,-2.5209,-2.5214,-2.5221,-2.5223,-2.5221,-2.522,-2.5229,-2.5228,-2.5226,-2.5226,-2.5226,-2.5226,0,-2.4957,-2.4973,-2.5002,-2.5029,-2.5036,-2.5052,-2.5075,-2.5091,-2.5103,-2.5126,-2.5133,-2.5152,-2.5175,-2.5189,-2.5217,-2.5224,-2.5251,-2.5253,-2.5245,-2.5247,-2.526,-2.5259,-2.5298,-2.5305,-2.5274,-2.5275,-2.5275,0,-2.4969,-2.4986,-2.5015,-2.5029,-2.5042,-2.5064,-2.5079,-2.5094,-2.5109,-2.5135,-2.5147,-2.5171,-2.5191,-2.5227,-2.5243,-2.5266,-2.5268,-2.528,-2.5271,-2.5269,-2.527,-2.5269,-2.5272,-2.5282,-2.5282,-2.5283,-2.5283,0,-2.499,-2.4999,-2.502,-2.5046,-2.5064,-2.5084,-2.5103,-2.5114,-2.5132,-2.5149,-2.5174,-2.5189,-2.522,-2.5244,-2.5268,-2.528,-2.5285,-2.5286,-2.529,-2.5288,-2.5284,-2.5288,-2.5251,-2.5285,-2.5284,-2.5284,-2.5284,-2.5284,-2.5004,-2.502,-2.5044,-2.5068,-2.5085,-2.5104,-2.5121,-2.5137,-2.5158,-2.5185,-2.5193,-2.5219,-2.524,-2.5273,-2.5286,-2.5307,-2.5305,-2.5311,-2.5313,-2.5315,-2.5316,-2.528,-2.5311,-2.5311,-2.5311,-2.5311,-2.5311,0,-2.5026,-2.5043,-2.5065,-2.5095,-2.5114,-2.5118,-2.5141,-2.5157,-2.518,-2.5201,-2.5221,-2.525,-2.5274,-2.5293,-2.5317,-2.533,-2.5333,-2.5336,-2.5335,-2.5339,-2.5315,-2.531,-2.5333,-2.5333,-2.5333,-2.5333,-2.5333,-2.5333,-2.5041,-2.5069,-2.508,-2.5117,-2.5133,-2.516,-2.5173,-2.5191,-2.5208,-2.5241,-2.5261,-2.5274,-2.5294,-2.532,-2.5342,-2.5347,-2.5356,-2.5359,-2.5364,-2.5342,-2.534,-2.5338,-2.5333,-2.5361,-2.5361,-2.5386,-2.5387,-2.5387]}]]